Orbital Elements
Epoch 2013 Jan. 28.0 TT = JDT 2456320.5
T 2013 Feb. 7.28004 TT Rudenko
q 2.1773745 (2000.0) P Q
n 0.12313797 Peri. 134.49923 -0.64744077 -0.76210389
a 4.0013640 Node 355.84299 +0.68151229 -0.57645687
e 0.4558419 Incl. 3.36610 +0.34111793 -0.29477982
P 8.00
From 97 observations 2013 Jan. 6-2021 Jan. 15, mean residual 0".5.
|